Location: Newark
(50.0306°N, 2.3272°E)
Time: 05:30:43
(UTC+00:00)

A-11 Canister half - Pass Details

Date: 10 December 2019
Orbit: 1525 x 1684 km, 47.3° (Epoch: 26 January)

Event Time Altitude Azimuth Distance (km) Brightness Sun altitude
Rises 09:07:52 0° 269° (W) 4,938 11.3 9.4°
Reaches altitude 10° 09:11:02 10° 268° (W) 3,949 10.9 9.7°
Maximum altitude 09:21:11 77° 185° (S) 1,710 9.7 10.6°
Drops below altitude 10° 09:31:08 10° 102° (ESE) 3,873 11.9 11.4°
Sets 09:34:13 0° 101° (E) 4,839 12.3 11.7°
